Regional Weather Roundup
Issued by NWS State College, PA

Home | Current Version | Previous Version | Text Only | Print | Product List | Glossary Off
Versions: 1 2 3 4 5 6 7 8 9 10 11 12 13 14 15 16 17 18 19 20 21 22 23 24 25 26 27 28 29 30 31 32 33 34 35 36 37 38 39 40 41 42 43 44 45 46 47 48 49 50

000
ASUS41 KCTP 291310
RWRCTP

REGIONAL WEATHER ROUNDUP
NATIONAL WEATHER SERVICE STATE COLLEGE PA
900 AM EDT MON MAY 29 2017

Note: "fair" indicates few or no clouds below 12,000 feet with no
significant weather and/or obstructions to visibility.

* = STATION THAT DOES NOT REPORT PRECIPITATION /E.G. RAIN...SNOW...ETC/
    THUNDER OR FOG.

PAZ002>004-007>009-013>016-020>023-029>032-291400-
WESTERN PENNSYLVANIA

CITY           SKY/WX    TMP DP  RH WIND       PRES   REMARKS
ERIE           MOSUNNY   65  57  75 SW14G22   29.82R
MEADVILLE      PTSUNNY   63  60  90 W10       29.86R
FRANKLIN*      CLOUDY    61  55  82 W8        29.87R
NEW CASTLE     FAIR      64  59  83 W8        29.88R
BEAVER COUNTY  NOT AVBL
BUTLER*        PTSUNNY   63  59  88 W6        29.88S
PITTSBURGH INT MOSUNNY   64  60  87 W7        29.88R
PITTSBURGH     MOSUNNY   65  58  78 SW10      29.89R
INDIANA*       CLOUDY    63  63 100 W9        29.92R
LATROBE        PTSUNNY   63  63 100 SW7       29.91R
WASHINGTON CO* SUNNY     64  57  77 SW9       29.92R
$$

PAZ004>006-010>012-017>019-024>028-033>037-041-042-045-046-049>053-291400-
CENTRAL PENNSYLVANIA

CITY           SKY/WX    TMP DP  RH WIND       PRES   REMARKS
BRADFORD       CLOUDY    59  58  96 SW8       29.85R
DUBOIS         CLOUDY    60  57  89 SW12      29.87R
CLEARFIELD     CLOUDY    62  61  96 SW8       29.87R
JOHNSTOWN      PTSUNNY   61  59  93 W6        29.90R
ALTOONA        PTSUNNY   67  61  81 W8        29.89R
STATE COLLEGE  PTSUNNY   64  63  94 SW5       29.86R
WILLIAMSPORT   CLOUDY    60  56  86 E8        29.85R
SELINSGROVE    CLOUDY    61  58  90 CALM      29.86R
FT INDIANTOWN  PTSUNNY   57  57 100 S5        29.89R
CAPITAL CITY   CLOUDY    61  58  90 E5        29.88R FOG
HARRISBURG     CLOUDY    60  60 100 E7        29.87R
YORK           CLOUDY    61  61 100 CALM      29.87R
$$

PAZ038>040-043-044-047-048-054-055-060>062-067>071-291400-
EASTERN PENNSYLVANIA

CITY           SKY/WX    TMP DP  RH WIND       PRES   REMARKS
SCRANTON       LGT RAIN  57  54  89 NE7       29.87S
MOUNT POCONO   LGT RAIN  51  51 100 SE14      29.89F
ALLENTOWN      LGT RAIN  57  54  89 E5        29.90R
QUAKERTOWN*    CLOUDY    55  55 100 E5        29.90F
READING        LGT RAIN  59  58  96 NE3       29.88R
LANCASTER      CLOUDY    60  59  96 E9        29.87S
COATESVILLE    CLOUDY    57  57 100 E8G15     29.89R FOG
POTTSTOWN      LGT RAIN  57  56  96 VRB5      29.90S FOG
BLUE BELL      CLOUDY    55  55 100 E5        29.91R
DOYLESTOWN     LGT RAIN  56  56 100 CALM      29.90R
WILLOW GROVE   NOT AVBL
NORTH PHILA    CLOUDY    59  56  89 E9        29.91R
PHILADELPHIA   CLOUDY    59  56  89 NE7       29.89R
$$




USA.gov is the U.S. government's official web portal to all federal, state and local government web resources and services.